Weather History for V.C. Bird, Antigua

Change the Weather History Date:

Sunday, February 3, 2013

  Actual Average Record
Temperature  
Mean Temperature 76 °F -  
Max Temperature 82 °F 81 °F 84 °F (2002)
Min Temperature 69 °F 71 °F 69 °F (2005)
Cooling Degree Days 10    
Growing Degree Days 26 (Base 50)    
Moisture  
Dew Point 60 °F    
Average Humidity 56    
Maximum Humidity 73    
Minimum Humidity 35    
Precipitation  
Precipitation 0.00 in - - ()
Sea Level Pressure  
Sea Level Pressure 29.99 in    
Wind  
Wind Speed 7 mph ()    
Max Wind Speed 14 mph    
Max Gust Speed -    
Visibility 8.6 miles    
Events      
Averages and records for this station are not official NWS values.
T = Trace of Precipitation, MM = Missing Value Source: Averaged Metar Reports

Daily Weather History Graph

Daily Weather History Graph

Search for Another Location

Airport:

Trip Planner

Search our weather history database for the weather conditions in past years. The results will help you decide how hot, cold, wet, or windy it might be!

Date:

Astronomy

Feb. 03, 2013 Rise Set
Actual Time 6:38 AM AST 6:04 PM AST
Civil Twilight 6:15 AM AST 6:26 PM AST
Nautical Twilight 5:49 AM AST 6:52 PM AST
Astronomical Twilight 5:23 AM AST 7:18 PM AST
Moon No Moon Rise 11:42 AM AST (2/3)
Length of Visible Light 12h 10m
Length of Day
11h 25m
Waning Gibbous, 49% of the Moon is Illuminated
Feb 3
Waning Gibbous
Feb 10
New
Feb 17
First Quarter
Feb 25
Full
Mar 4
Last Quarter

Hourly Weather History & Observations

Time (AST) Temp. Heat Index Dew Point Humidity Pressure Visibility Wind Dir Wind Speed Gust Speed Precip Events Conditions
12:00 AM 75.2 °F - 60.8 °F 61% 30.04 in 6.2 mi ENE 11.5 mph - N/A   Partly Cloudy
1:00 AM 75.2 °F - 59.0 °F 57% 30.01 in 6.2 mi ENE 11.5 mph - N/A   Partly Cloudy
2:00 AM 75 °F - 59 °F 47% 30.00 in 17 mi East 9.2 mph - -   Haze
2:00 AM 75.2 °F - 59.0 °F 57% 29.98 in 6.2 mi East 9.2 mph - N/A   Partly Cloudy
3:00 AM 75.2 °F - 59.0 °F 57% 29.98 in 6.2 mi East 9.2 mph - N/A   Partly Cloudy
4:00 AM 73.4 °F - 59.0 °F 61% 29.95 in 6.2 mi ENE 8.1 mph - N/A   Partly Cloudy
5:00 AM 75 °F - 61 °F 52% 29.97 in 17 mi East 10.4 mph - -   Haze
5:00 AM 75.2 °F - 60.8 °F 61% 29.95 in 6.2 mi East 10.4 mph - N/A   Partly Cloudy
6:00 AM 73.4 °F - 60.8 °F 65% 29.98 in 6.2 mi East 5.8 mph - N/A   Partly Cloudy
7:00 AM 75.2 °F - 59.0 °F 57% 29.98 in 6.2 mi East 6.9 mph - N/A   Partly Cloudy
8:00 AM 77.0 °F - 60.8 °F 57% 30.01 in 6.2 mi ESE 4.6 mph - N/A   Partly Cloudy
9:00 AM 78.8 °F - 57.2 °F 47% 30.04 in 6.2 mi ESE 4.6 mph - N/A   Scattered Clouds
10:00 AM 78.8 °F - 57.2 °F 47% 30.04 in 6.2 mi ESE 5.8 mph - N/A   Scattered Clouds
11:00 AM 81 °F - 58 °F 35% 30.04 in 19 mi East 8.1 mph - -   Mostly Cloudy
11:00 AM 80.6 °F 80.8 °F 57.2 °F 45% 30.04 in 6.2 mi East 8.1 mph - N/A   Mostly Cloudy
12:00 PM 80.6 °F 81.1 °F 59.0 °F 48% 30.01 in 6.2 mi East 6.9 mph - N/A   Mostly Cloudy
1:00 PM 80.6 °F 80.8 °F 57.2 °F 45% 29.98 in 6.2 mi ENE 9.2 mph - N/A   Partly Cloudy
2:00 PM 80 °F - 59 °F 39% 29.97 in 19 mi East 13.8 mph - -   Scattered Clouds
2:00 PM 80.6 °F 81.1 °F 59.0 °F 48% 29.95 in 6.2 mi East 13.8 mph - N/A   Partly Cloudy
3:00 PM 80.6 °F 81.5 °F 60.8 °F 51% 29.95 in 6.2 mi East 8.1 mph - N/A   Partly Cloudy
4:00 PM 78.8 °F - 62.6 °F 57% 29.92 in 6.2 mi East 8.1 mph - N/A   Partly Cloudy
5:00 PM 78.8 °F - 62.6 °F 57% 29.95 in 6.2 mi East 5.8 mph - N/A   Partly Cloudy
6:00 PM 75.2 °F - 62.6 °F 65% 29.95 in 6.2 mi East 3.5 mph - N/A   Partly Cloudy
7:00 PM 73.4 °F - 60.8 °F 65% 29.98 in 6.2 mi East 3.5 mph - N/A   Partly Cloudy
8:00 PM 71 °F - 61 °F 64% 30.00 in 19 mi 1.2 mph - -   Scattered Clouds
8:00 PM 71.6 °F - 60.8 °F 69% 29.98 in 6.2 mi Variable 1.2 mph - N/A   Partly Cloudy
9:00 PM 71.6 °F - 60.8 °F 69% 30.01 in 6.2 mi Variable 1.2 mph - N/A   Partly Cloudy
10:00 PM 71.6 °F - 60.8 °F 69% 30.01 in 6.2 mi Calm Calm - N/A   Partly Cloudy
11:00 PM 69 °F - 61 °F 70% 30.01 in 19 mi Calm Calm - -   Scattered Clouds
11:00 PM 69.8 °F - 60.8 °F 73% 30.01 in 6.2 mi Calm Calm - N/A   Partly Cloudy